Regional Weather Roundup
Issued by NWS

Home | Current Version | Previous Version | Text Only | Print | Product List | Glossary On
Versions: 1 2 3 4 5 6 7 8 9 10 11 12 13 14 15 16 17 18 19 20 21 22 23 24 25 26 27 28 29 30 31 32 33 34 35 36 37 38 39 40 41 42 43 44 45 46 47 48 49 50
000
ASUS43 KDTX 280410
RWRMI
MICHIGAN HOURLY REGIONAL WEATHER ROUNDUP
NATIONAL WEATHER SERVICE DETROIT/PONTIAC MI
1200 AM EDT TUE JUL 28 2015

NOTE: "FAIR" INDICATES FEW OR NO CLOUDS BELOW 12,000 FEET WITH NO
SIGNIFICANT WEATHER AND/OR OBSTRUCTION TO VISIBILITY.

MIZ047>049-052>055-059>063-066>070-074>076-081>083-280500-
SOUTHEAST LOWER MICHIGAN

CITY           SKY/WX    TMP DP  RH WIND       PRES   REMARKS
ADRIAN         CLEAR     69  63  81 CALM      30.06R
ALMA           CLEAR     67  66  96 CALM      30.05R
ANN ARBOR      PTCLDY    66  65  96 CALM      30.05R
BAD AXE        CLEAR     66  64  93 CALM      30.04S
DETROIT CITY   PTCLDY    76  63  64 CALM      30.05R
DETROIT        MOCLDY    76  64  66 CALM      30.05R
FLINT          PTCLDY    70  64  81 CALM      30.05R
GROSSE ILE     MOCLDY    73  70  88 CALM      30.04R
HILLSDALE      CLEAR     68  66  94 CALM      30.07R
HOWELL         PTCLDY    69  64  84 CALM      30.06R

CITY           SKY/WX    TMP DP  RH WIND       PRES   REMARKS
JACKSON        CLEAR     70  65  84 CALM      30.06R
LAMBERTVILLE   PTCLDY    70  65  85 CALM      30.05S
LANSING        CLEAR     69  64  84 CALM      30.05S
LAPEER         NOT AVBL
MASON          CLEAR     66  64  95 CALM      30.06R
MONROE         PTCLDY    67  64  91 CALM      30.04S
MT. CLEMENS    CLEAR     71  66  85 SW2       30.03R
PONTIAC        PTCLDY    73  62  68 CALM      30.05S
PORT HOPE        N/A     70  67  90 S5        30.02S
PORT HURON     CLEAR     61  61 100 CALM      30.04S
TRI CITIES     CLEAR     76  64  66 SW5       30.04R
YPSILANTI      PTCLDY    73  66  78 CALM      30.06R
$$
MIZ043>046-050>051-056>058-064>065-071>073-077>080-280500-
SOUTHWEST LOWER MICHIGAN

CITY           SKY/WX    TMP DP  RH WIND       PRES   REMARKS
BATTLE CREEK   CLEAR     71  64  78 CALM      30.06R
BENTON HARBOR  PTCLDY    67  64  90 CALM      30.02F
BIG RAPIDS     CLEAR     70  64  80 CALM      30.06R
COLDWATER      CLEAR     64  63  94 CALM      30.06R
HOLLAND        PTCLDY    69  66  90 CALM      30.04S
GRAND RAPIDS   PTCLDY    74  67  78 CALM      30.05R
KALAMAZOO      CLEAR     70  64  81 CALM      30.05S
MARSHALL       CLEAR     67  65  93 CALM      30.05S
MUSKEGON       CLEAR     74  65  73 NE6       30.04S
$$
MIZ016>042-280500-
NORTHERN LOWER MICHIGAN

CITY           SKY/WX    TMP DP  RH WIND       PRES   REMARKS
ALPENA         CLEAR     67  63  87 CALM      30.04S
BEAVER ISLAND  CLEAR     66  61  82 CALM      30.04S
BELLAIRE       CLEAR     63  61  93 CALM      30.05S
CADILLAC       CLEAR     65  61  87 CALM      30.08R
CHARLEVOIX     CLEAR     66  61  81 CALM      30.07S
FRANKFORT      CLEAR     63  56  78 CALM      30.04S
GAYLORD        CLEAR     68  62  81 CALM      30.08R
GRAYLING       CLEAR     65  61  87 CALM      30.08R
HARBOR SPRINGS CLEAR     67  66  96 CALM      30.04S
HOUGHTON LAKE  CLEAR     68  62  81 NW7       30.07R
MANISTEE       CLEAR     63  57  82 CALM      30.04S
OSCODA         CLEAR     66  63  90 CALM      30.03S
PELLSTON       CLEAR     64  61  90 CALM      30.04S
TRAVERSE CITY  CLEAR     69  64  84 CALM      30.03R
$$
MIZ007>008-015-280500-
EASTERN UPPER MICHIGAN

CITY           SKY/WX    TMP DP  RH WIND       PRES   REMARKS
KINROSS        CLEAR     72  63  73 SW3       30.03S
MACKINAC ISLAN CLEAR     72  59  63 W7        30.03S
$$
MIZ004>006-011>014-085-280500-
CENTRAL UPPER MICHIGAN

CITY           SKY/WX    TMP DP  RH WIND       PRES   REMARKS
MANISTIQUE     CLEAR     63  61  94 CALM      30.02S
ESCANABA       CLEAR     64  61  88 CALM      30.02R
MENOMINEE      CLEAR     68  63  83 CALM      30.02R
SAWYER-GWINN   CLEAR     71  61  72 SW6       30.03F
$$
MIZ001>003-009>011-084-280500-
WESTERN UPPER MICHIGAN

CITY           SKY/WX    TMP DP  RH WIND       PRES   REMARKS
IRON MOUNTAIN  CLEAR     66  61  84 CALM      30.03R
HOUGHTON       CLEAR     68  63  84 NE9       29.99F
COPPER HARBOR    N/A     68  62  81 W9        29.97F
IRONWOOD       CLEAR     73  63  68 S7        29.97S
$$

ABBREVIATIONS USED IN REMARKS
   TC - TEMPERATURE IN CELSIUS
  WCI - WIND CHILL INDEX
   HX - HEAT INDEX
  VSB - VISIBILITY



USA.gov is the U.S. government's official web portal to all federal, state and local government web resources and services.